When you browse on this site, cookies collect data to enhance your experience and personalize the content and advertising you see.
Visit our Privacy Policy to learn more. By continuing to use the site, you agree to this use of cookies and data.
  • In Denmark
  • List of Countries
  • For 7 days
  • Water Temperature
  • Weather Map
  • Weather Widgets
  • user-avatar
    Login

    Hourly Weather Strachowo

    Today, 22 September, Sunday

    Time Temperature Precipitation Wind Pressure Humidity
    00:00 +9°C° 0 mm 2 mps 756 mmHg 93%
    01:00 +10°C° 0 mm 1 mps 756 mmHg 92%
    02:00 +10°C° 0 mm 1 mps 756 mmHg 92%
    03:00 +9°C° 0 mm 2 mps 755 mmHg 93%
    04:00 +9°C° 0 mm 2 mps 755 mmHg 93%
    05:00 +9°C° 0 mm 2 mps 755 mmHg 90%
    06:00 +10°C° 0 mm 2 mps 755 mmHg 86%
    07:00 +12°C° 0 mm 2 mps 755 mmHg 83%
    08:00 +14°C° 0 mm 2 mps 755 mmHg 74%
    09:00 +16°C° 0 mm 2 mps 755 mmHg 66%
    10:00 +18°C° 0 mm 3 mps 755 mmHg 57%
    11:00 +20°C° 0 mm 3 mps 754 mmHg 53%
    12:00 +21°C° 0 mm 3 mps 754 mmHg 49%
    13:00 +22°C° 0 mm 3 mps 753 mmHg 46%
    14:00 +23°C° 0 mm 2 mps 753 mmHg 47%
    15:00 +23°C° 0 mm 2 mps 753 mmHg 49%
    16:00 +22°C° 0 mm 1 mps 752 mmHg 51%
    17:00 +20°C° 0 mm 1 mps 752 mmHg 56%
    18:00 +18°C° 0 mm 1 mps 752 mmHg 62%
    19:00 +14°C° 0 mm 0 mps 752 mmHg 67%
    20:00 +14°C° 0 mm 0 mps 752 mmHg 69%
    21:00 +14°C° 0 mm 1 mps 753 mmHg 72%
    22:00 +14°C° 0 mm 1 mps 753 mmHg 74%
    23:00 +13°C° 0 mm 1 mps 753 mmHg 79%

    Tomorrow, 23 September, Monday

    Time Temperature Precipitation Wind Pressure Humidity
    00:00 +13°C° 0 mm 2 mps 753 mmHg 83%
    01:00 +12°C° 0 mm 2 mps 753 mmHg 88%
    02:00 +11°C° 0 mm 3 mps 753 mmHg 90%
    03:00 +10°C° 0 mm 3 mps 753 mmHg 93%
    04:00 +10°C° 0 mm 4 mps 753 mmHg 95%
    05:00 +10°C° 0 mm 4 mps 753 mmHg 94%
    06:00 +10°C° 0 mm 5 mps 753 mmHg 93%
    07:00 +10°C° 0 mm 5 mps 754 mmHg 92%
    08:00 +12°C° 0 mm 5 mps 754 mmHg 87%
    09:00 +12°C° 0 mm 5 mps 754 mmHg 83%
    10:00 +13°C° 0 mm 5 mps 754 mmHg 79%
    11:00 +14°C° 0 mm 5 mps 754 mmHg 73%
    12:00 +16°C° 0 mm 5 mps 754 mmHg 67%
    13:00 +17°C° 0 mm 5 mps 754 mmHg 61%
    14:00 +17°C° 0 mm 5 mps 754 mmHg 61%
    15:00 +16°C° 0 mm 5 mps 754 mmHg 61%
    16:00 +16°C° 0 mm 5 mps 753 mmHg 62%
    17:00 +14°C° 0 mm 5 mps 754 mmHg 66%
    18:00 +13°C° 0 mm 4 mps 754 mmHg 71%
    19:00 +11°C° 0 mm 4 mps 754 mmHg 76%
    20:00 +10°C° 0 mm 4 mps 754 mmHg 77%
    21:00 +10°C° 0 mm 4 mps 754 mmHg 78%
    22:00 +9°C° 0 mm 3 mps 755 mmHg 80%
    23:00 +9°C° 0 mm 3 mps 754 mmHg 81%

    Day after tomorrow, 24 September, Tuesday

    Time Temperature Precipitation Wind Pressure Humidity
    00:00 +8°C° 0 mm 3 mps 754 mmHg 83%
    01:00 +8°C° 0 mm 3 mps 754 mmHg 84%
    02:00 +8°C° 0 mm 3 mps 754 mmHg 86%
    03:00 +7°C° 0 mm 3 mps 754 mmHg 87%
    04:00 +7°C° 0 mm 3 mps 753 mmHg 89%
    05:00 +8°C° 0 mm 3 mps 753 mmHg 87%
    06:00 +8°C° 0 mm 3 mps 753 mmHg 85%
    07:00 +9°C° 0 mm 3 mps 753 mmHg 84%
    08:00 +11°C° 0 mm 3 mps 753 mmHg 77%
    09:00 +14°C° 0 mm 3 mps 753 mmHg 70%
    10:00 +17°C° 0 mm 3 mps 753 mmHg 64%
    11:00 +18°C° 0 mm 3 mps 752 mmHg 59%
    12:00 +19°C° 0 mm 3 mps 752 mmHg 55%
    13:00 +21°C° 0 mm 3 mps 751 mmHg 51%
    14:00 +20°C° 0 mm 3 mps 751 mmHg 52%
    15:00 +20°C° 0 mm 3 mps 751 mmHg 53%
    16:00 +20°C° 0 mm 3 mps 750 mmHg 54%
    17:00 +18°C° 0 mm 3 mps 750 mmHg 59%
    18:00 +16°C° 0 mm 3 mps 750 mmHg 65%
    19:00 +13°C° 0 mm 4 mps 750 mmHg 70%
    20:00 +13°C° 0 mm 4 mps 750 mmHg 70%
    21:00 +13°C° 0 mm 4 mps 750 mmHg 70%
    22:00 +13°C° 0 mm 4 mps 750 mmHg 71%
    23:00 +12°C° 0 mm 4 mps 749 mmHg 72%

    25 September, Wednesday

    Time Temperature Precipitation Wind Pressure Humidity
    00:00 +12°C° 0 mm 3 mps 749 mmHg 73%
    01:00 +12°C° 0 mm 3 mps 749 mmHg 75%
    02:00 +12°C° 0 mm 3 mps 748 mmHg 75%
    03:00 +12°C° 0 mm 3 mps 748 mmHg 75%
    04:00 +12°C° 0 mm 3 mps 748 mmHg 75%
    05:00 +13°C° 0 mm 3 mps 747 mmHg 74%
    06:00 +13°C° 0 mm 4 mps 747 mmHg 74%
    07:00 +13°C° 0 mm 4 mps 747 mmHg 73%
    08:00 +14°C° 0 mm 3 mps 747 mmHg 70%
    09:00 +16°C° 0 mm 3 mps 747 mmHg 67%
    10:00 +17°C° 0 mm 3 mps 747 mmHg 64%
    11:00 +17°C° 0 mm 3 mps 746 mmHg 64%
    12:00 +18°C° 0 mm 3 mps 746 mmHg 65%
    13:00 +18°C° 0 mm 3 mps 746 mmHg 65%
    14:00 +18°C° 0.4 mm 3 mps 745 mmHg 67%
    15:00 +18°C° 0.4 mm 3 mps 745 mmHg 70%
    16:00 +18°C° 0.4 mm 3 mps 745 mmHg 72%
    17:00 +17°C° 0.2 mm 3 mps 745 mmHg 76%
    18:00 +16°C° 0.2 mm 3 mps 745 mmHg 80%
    19:00 +16°C° 0.2 mm 3 mps 745 mmHg 85%
    20:00 +14°C° 0.1 mm 3 mps 745 mmHg 86%
    21:00 +14°C° 0.1 mm 3 mps 745 mmHg 87%
    22:00 +14°C° 0.1 mm 3 mps 746 mmHg 89%
    23:00 +14°C° 0.1 mm 3 mps 746 mmHg 89%

    26 September, Thursday

    Time Temperature Precipitation Wind Pressure Humidity
    00:00 +14°C° 0.1 mm 3 mps 746 mmHg 90%
    01:00 +14°C° 0.1 mm 3 mps 746 mmHg 90%
    02:00 +13°C° 0 mm 3 mps 746 mmHg 91%
    03:00 +13°C° 0 mm 3 mps 746 mmHg 92%
    04:00 +13°C° 0 mm 3 mps 746 mmHg 93%
    05:00 +13°C° 0.1 mm 3 mps 746 mmHg 93%
    06:00 +13°C° 0.1 mm 3 mps 747 mmHg 94%
    07:00 +13°C° 0.1 mm 3 mps 747 mmHg 94%
    08:00 +14°C° 0.1 mm 3 mps 747 mmHg 92%
    09:00 +14°C° 0.1 mm 3 mps 748 mmHg 90%
    10:00 +14°C° 0.1 mm 3 mps 748 mmHg 88%
    11:00 +16°C° 0 mm 3 mps 748 mmHg 86%
    12:00 +15°C° 0 mm 4 mps 748 mmHg 84%
    13:00 +15°C° 0 mm 4 mps 748 mmHg 82%
    14:00 +15°C° 0.3 mm 4 mps 748 mmHg 81%
    15:00 +17°C° 0.3 mm 4 mps 748 mmHg 80%
    16:00 +17°C° 0.3 mm 4 mps 749 mmHg 79%
    17:00 +15°C° 0.2 mm 4 mps 749 mmHg 83%
    18:00 +14°C° 0.2 mm 3 mps 749 mmHg 87%
    19:00 +13°C° 0.2 mm 3 mps 749 mmHg 91%
    20:00 +13°C° 0 mm 3 mps 749 mmHg 92%
    21:00 +13°C° 0 mm 2 mps 750 mmHg 93%
    22:00 +13°C° 0 mm 2 mps 750 mmHg 94%
    23:00 +13°C° 0 mm 2 mps 750 mmHg 94%

    27 September, Friday

    Time Temperature Precipitation Wind Pressure Humidity
    00:00 +12°C° 0 mm 2 mps 750 mmHg 94%
    01:00 +12°C° 0 mm 2 mps 750 mmHg 95%
    02:00 +12°C° 0 mm 2 mps 750 mmHg 95%
    03:00 +12°C° 0 mm 1 mps 750 mmHg 95%
    04:00 +12°C° 0 mm 1 mps 751 mmHg 95%
    05:00 +12°C° 0 mm 1 mps 751 mmHg 94%
    06:00 +12°C° 0 mm 1 mps 751 mmHg 93%
    07:00 +13°C° 0 mm 1 mps 751 mmHg 92%
    08:00 +13°C° 0 mm 2 mps 751 mmHg 88%
    09:00 +14°C° 0 mm 2 mps 752 mmHg 84%
    10:00 +15°C° 0 mm 2 mps 752 mmHg 80%
    11:00 +16°C° 0 mm 2 mps 752 mmHg 77%
    12:00 +16°C° 0 mm 2 mps 752 mmHg 75%
    13:00 +17°C° 0 mm 2 mps 751 mmHg 73%
    14:00 +17°C° 0 mm 2 mps 751 mmHg 74%
    15:00 +17°C° 0 mm 2 mps 751 mmHg 75%
    16:00 +17°C° 0 mm 2 mps 751 mmHg 76%
    17:00 +16°C° 0.1 mm 2 mps 751 mmHg 80%
    18:00 +16°C° 0.1 mm 2 mps 751 mmHg 84%
    19:00 +15°C° 0.1 mm 2 mps 751 mmHg 88%
    20:00 +15°C° 0.2 mm 2 mps 751 mmHg 90%
    21:00 +15°C° 0.2 mm 2 mps 751 mmHg 92%
    22:00 +15°C° 0.2 mm 2 mps 751 mmHg 94%
    23:00 +15°C° 0 mm 2 mps 751 mmHg 94%
    Show more